| time (UTC) | temp F | wind direction | speed knots | gust knots | rain 1hr in | rain 24hr in | rain mn in | humidity % | barometer mb |
| 20260502194555 | 54 | 352 | 6.1 | 11.3 | 0.00 | 0.00 | 0.00 | 46 | 1015.4 |
| 20260502193105 | 54 | 316 | 3.5 | 12.2 | 0.00 | 0.00 | 0.00 | 41 | 1015.5 |
| 20260502191607 | 54 | 295 | 6.1 | 9.6 | 0.00 | 0.00 | 0.00 | 43 | 1015.5 |
| 20260502190057 | 53 | 4 | 5.2 | 10.4 | 0.00 | 0.00 | 0.00 | 44 | 1015.7 |
| 20260502184605 | 53 | 313 | 4.3 | 10.4 | 0.00 | 0.00 | 0.00 | 44 | 1016.0 |
| 20260502183100 | 53 | 343 | 6.1 | 10.4 | 0.00 | 0.00 | 0.00 | 43 | 1016.0 |
| 20260502181604 | 53 | 3 | 3.5 | 11.3 | 0.00 | 0.00 | 0.00 | 45 | 1016.0 |
| 20260502180118 | 53 | 325 | 5.2 | 12.2 | 0.00 | 0.00 | 0.00 | 44 | 1016.1 |
| 20260502170109 | 53 | 293 | 3.5 | 11.3 | 0.00 | 0.00 | 0.00 | 45 | 1016.4 |
| 20260502163059 | 53 | 18 | 3.5 | 8.7 | 0.00 | 0.00 | 0.00 | 47 | 1016.5 |
| 20260502161557 | 52 | 345 | 4.3 | 9.6 | 0.00 | 0.00 | 0.00 | 47 | 1016.6 |
| 20260502151606 | 52 | 274 | 1.7 | 8.7 | 0.00 | 0.00 | 0.00 | 51 | 1016.8 |
| 20260502140103 | 47 | 316 | 3.5 | 7.8 | 0.00 | 0.00 | 0.00 | 82 | 1017.0 |
| 20260502123100 | 41 | 195 | 0.0 | 1.7 | 0.00 | 0.00 | 0.00 | 92 | 1016.9 |
| 20260502121558 | 40 | 256 | 0.9 | 2.6 | 0.00 | 0.00 | 0.00 | 92 | 1016.8 |
| 20260502120105 | 39 | 218 | 0.9 | 1.7 | 0.00 | 0.00 | 0.00 | 92 | 1017.1 |
| 20260502114558 | 37 | 0 | 0.0 | 0.0 | 0.00 | 0.00 | 0.00 | 91 | 1016.9 |
| 20260502113057 | 37 | 0 | 0.0 | 1.7 | 0.00 | 0.00 | 0.00 | 91 | 1017.0 |
| 20260502111611 | 37 | 202 | 0.9 | 2.6 | 0.00 | 0.00 | 0.00 | 91 | 1016.6 |
| 20260502110056 | 37 | 0 | 0.0 | 0.0 | 0.00 | 0.00 | 0.00 | 90 | 1016.6 |
| 20260502104557 | 37 | 0 | 0.0 | 0.0 | 0.00 | 0.00 | 0.00 | 90 | 1016.6 |
| 20260502103109 | 37 | 0 | 0.0 | 0.0 | 0.00 | 0.00 | 0.00 | 90 | 1016.3 |
| 20260502101610 | 37 | 228 | 0.0 | 1.7 | 0.00 | 0.00 | 0.00 | 90 | 1016.9 |
| 20260502070056 | 41 | 0 | 0.9 | 2.6 | 0.00 | 0.00 | 0.00 | 83 | 1016.5 |
| 20260502064601 | 41 | 0 | 0.0 | 0.0 | 0.00 | 0.00 | 0.00 | 83 | 1016.4 |
| 20260502063102 | 42 | 0 | 0.0 | 0.9 | 0.00 | 0.00 | 0.00 | 81 | 1016.6 |
| 20260502061558 | 43 | 0 | 0.0 | 0.0 | 0.00 | 0.00 | 0.00 | 81 | 1016.9 |
| 20260502060058 | 43 | 0 | 0.0 | 1.7 | 0.00 | 0.00 | 0.00 | 79 | 1017.1 |
| 20260502054602 | 44 | 0 | 0.9 | 2.6 | 0.00 | 0.00 | 0.00 | 78 | 1016.9 |
| 20260502053057 | 45 | 0 | 0.0 | 0.0 | 0.00 | 0.00 | 0.00 | 77 | 1017.2 |
| 20260502051556 | 45 | 0 | 0.0 | 1.7 | 0.00 | 0.00 | 0.00 | 75 | 1017.2 |
| 20260502050055 | 46 | 0 | 0.0 | 2.6 | 0.00 | 0.00 | 0.00 | 73 | 1017.2 |
| 20260502044557 | 47 | 0 | 0.0 | 0.0 | 0.00 | 0.00 | 0.00 | 70 | 1017.4 |
| 20260502043107 | 47 | 0 | 0.0 | 0.9 | 0.00 | 0.00 | 0.00 | 69 | 1017.2 |
| 20260502041557 | 48 | 0 | 0.0 | 0.0 | 0.00 | 0.00 | 0.00 | 68 | 1017.3 |
| 20260502040057 | 48 | 0 | 0.0 | 0.9 | 0.00 | 0.00 | 0.00 | 67 | 1017.1 |
| 20260502034601 | 48 | 0 | 0.0 | 2.6 | 0.00 | 0.00 | 0.00 | 66 | 1017.0 |
| 20260502033058 | 49 | 339 | 0.0 | 2.6 | 0.00 | 0.00 | 0.00 | 65 | 1017.1 |
| 20260502031555 | 49 | 350 | 1.7 | 4.3 | 0.00 | 0.00 | 0.00 | 64 | 1017.3 |
| 20260502030100 | 49 | 25 | 0.9 | 3.5 | 0.00 | 0.00 | 0.00 | 63 | 1017.2 |
| 20260502024557 | 50 | 359 | 2.6 | 5.2 | 0.00 | 0.00 | 0.00 | 62 | 1017.2 |
| 20260502023057 | 50 | 342 | 1.7 | 7.8 | 0.00 | 0.00 | 0.00 | 62 | 1017.2 |
| 20260502021556 | 50 | 339 | 1.7 | 7.8 | 0.00 | 0.00 | 0.00 | 61 | 1017.0 |
| 20260502020056 | 51 | 2 | 2.6 | 7.8 | 0.00 | 0.00 | 0.00 | 61 | 1016.6 |
| 20260502014557 | 51 | 39 | 4.3 | 12.2 | 0.00 | 0.00 | 0.00 | 62 | 1016.3 |
| 20260502013056 | 52 | 29 | 4.3 | 14.8 | 0.00 | 0.00 | 0.00 | 61 | 1016.0 |
| 20260502011602 | 53 | 17 | 6.1 | 12.2 | 0.00 | 0.00 | 0.00 | 62 | 1015.6 |
| 20260502010058 | 53 | 345 | 6.1 | 12.2 | 0.00 | 0.00 | 0.00 | 63 | 1015.4 |
| 20260502004609 | 53 | 345 | 6.1 | 11.3 | 0.00 | 0.00 | 0.00 | 62 | 1015.0 |
| 20260502003056 | 54 | 335 | 7.0 | 11.3 | 0.00 | 0.00 | 0.00 | 62 | 1014.2 |
| 20260502001630 | 54 | 325 | 3.5 | 8.7 | 0.00 | 0.00 | 0.00 | 62 | 1014.2 |
| 20260502000115 | 54 | 342 | 7.0 | 9.6 | 0.00 | 0.00 | 0.00 | 63 | 1014.1 |
| 20260501234600 | 54 | 347 | 4.3 | 7.8 | 0.00 | 0.00 | 0.00 | 64 | 1013.7 |
| 20260501233100 | 55 | 335 | 2.6 | 7.8 | 0.00 | 0.00 | 0.00 | 64 | 1013.2 |
| 20260501231601 | 55 | 305 | 3.5 | 9.6 | 0.00 | 0.00 | 0.00 | 63 | 1013.2 |
| 20260501230056 | 55 | 347 | 5.2 | 9.6 | 0.00 | 0.00 | 0.00 | 61 | 1013.3 |
| 20260501224555 | 55 | 317 | 4.3 | 13.0 | 0.00 | 0.00 | 0.00 | 61 | 1013.2 |
| 20260501223109 | 56 | 339 | 7.0 | 13.0 | 0.00 | 0.00 | 0.00 | 59 | 1012.9 |
| 20260501221557 | 56 | 339 | 8.7 | 14.8 | 0.00 | 0.00 | 0.00 | 57 | 1012.9 |
| 20260501220105 | 57 | 308 | 8.7 | 16.5 | 0.00 | 0.00 | 0.00 | 56 | 1012.8 |
| 20260501214559 | 57 | 299 | 9.6 | 16.5 | 0.00 | 0.00 | 0.00 | 58 | 1012.9 |
| 20260501213112 | 58 | 335 | 9.6 | 13.9 | 0.00 | 0.00 | 0.00 | 59 | 1012.6 |
| 20260501211558 | 59 | 14 | 7.0 | 20.0 | 0.00 | 0.00 | 0.00 | 59 | 1012.6 |
| 20260501210121 | 59 | 340 | 5.2 | 15.6 | 0.00 | 0.00 | 0.00 | 58 | 1012.3 |
| 20260501204557 | 60 | 335 | 6.1 | 13.9 | 0.00 | 0.00 | 0.00 | 57 | 1012.2 |
| 20260501203100 | 61 | 352 | 9.6 | 17.4 | 0.00 | 0.00 | 0.00 | 52 | 1012.0 |
| 20260501201644 | 61 | 330 | 10.4 | 18.2 | 0.00 | 0.00 | 0.00 | 50 | 1011.8 |
| 20260501201557 | 61 | 330 | 10.4 | 18.2 | 0.00 | 0.00 | 0.00 | 50 | 1011.8 |
| 20260501200346 | 62 | 322 | 8.7 | 18.2 | 0.00 | 0.00 | 0.00 | 49 | 1011.6 |